Flag for Indonesia Weather past 2 weeks in Padang, West Sumatra, Indonesia

Now
75 °F

Partly cloudy.


Feels Like: 74 °F
Forecast: 77 / 89 °F
Wind: 2 mph from North

Location: Johore Bharu / Senai

Current Time: Sep 21, 2014 at 1:15:49 AM

Latest Report: Sep 21, 2014 at 12:00 AM


Visibility: N/A

Pressure: 29.92 "Hg

Humidity: 94%

Dew point: 73 °F

Location of PadangLocation

Historic Weather in Padang — Graph

°F

Padang temperature yesterday

Maximum temperature yesterday: 90 °F (at 11:00 AM)
Minimum temperature yesterday: 75 °F (at 2:00 PM)
Average temperature yesterday: 79 °F

Past Weeks' High & Low Weather Summary

 TemperatureHumidityPressure
High91 °F (Sep 8, 4:00 PM)100% (Sep 8, 5:00 AM)29.92 "Hg (Sep 8, 5:00 AM)
Low72 °F (Sep 12, 4:00 AM)56% (Sep 8, 4:00 PM)29.68 "Hg (Sep 16, 3:00 PM)
Average81 °F84%29.83 "Hg
* Reported Sep 5 8:00 PM — Sep 20 8:00 PM, Padang, Weather by CustomWeather, © 2014

Note: Actual official high and low records may vary slightly from our data, if they occured in-between our weather recording intervals... More about our weather records

Advertising

Padang weather history for previous 24 hours

 ConditionsComfort  
Time TempWeatherWind HumidityBarometerVisibility
8:00 PM
Sep 20
75 °FPassing clouds.2 mph94%29.89 "HgN/A
7:00 PM75 °FPassing clouds.2 mph94%29.86 "HgN/A
6:00 PM75 °FPartly sunny.1 mph94%29.83 "HgN/A
5:00 PM75 °FPartly sunny.5 mph94%29.83 "HgN/A
4:00 PM75 °FThunderstorms. Partly sunny.1 mph94%29.80 "HgN/A
3:00 PM75 °FThunderstorms. Broken clouds.3 mph94%29.80 "Hg6 mi
2:00 PM75 °FStrong thunderstorms. Broken clouds.6 mph94%29.80 "HgN/A
1:00 PM77 °FStrong thunderstorms. Broken clouds.8 mph89%29.83 "Hg2 mi
12:00 PM90 °FBroken clouds.5 mph71%29.80 "HgN/A
11:00 AM90 °FSprinkles. Broken clouds.2 mph67%29.86 "HgN/A
10:00 AM88 °FBroken clouds.5 mph70%29.89 "HgN/A
9:00 AM86 °FPartly sunny.6 mph75%29.89 "HgN/A
8:00 AM82 °FPartly sunny.1 mph89%29.86 "HgN/A
7:00 AM77 °FPartly sunny.1 mph94%29.83 "Hg4 mi
6:00 AM77 °FPartly sunny.1 mph94%29.83 "Hg4 mi
5:00 AM77 °FPassing clouds.1 mph94%29.80 "Hg4 mi
4:00 AM77 °FPassing clouds.1 mph94%29.80 "Hg4 mi
3:00 AM77 °FPartly cloudy.1 mph94%29.80 "Hg4 mi
2:00 AM77 °FPartly cloudy.No wind94%29.80 "Hg5 mi
1:00 AM79 °FPartly cloudy.No wind94%29.83 "Hg6 mi
Weather by CustomWeather, © 2014

See weather overviewHow to use our weather pages